Regional Weather Roundup
Issued by NWS Grand Forks, ND

Home | Current Version | Previous Version | Graphics & Text | Print | Product List | Glossary On
Versions: 1 2 3 4 5 6 7 8 9 10 11 12 13 14 15 16 17 18 19 20 21 22 23 24 25 26 27 28 29 30 31 32 33 34 35 36 37 38 39 40 41 42 43 44 45 46 47 48 49 50
000
ASUS43 KFGF 171910
RWRFGF
PRAIRIE TO PINES  WEATHER ROUNDUP
NATIONAL WEATHER SERVICE EASTERN NORTH DAKOTA/GRAND FORKS ND
200 PM CDT WED SEP 17 2014

 **SATELLITE DATA USED TO AUGMENT SKY COVER AT AUTOMATED STATIONS**
 *****  WEATHER ACROSS EASTERN NORTH DAKOTA  *****

CITY           SKY/WX    TMP DP  RH WIND       PRES   REMARKS
GRAND FORKS    MOSUNNY   64  51  62 NE12      30.01R
GRAND FRKS AFB MOSUNNY   60  52  75 N15G22    30.03S
GRAND FRKS NWS   N/A     64 N/A N/A VRB13       N/A
DEVILS LAKE    SUNNY     61  46  59 NE9       30.02S
FARGO          SUNNY     72  49  44 N8        29.96S
WAHPETON ARPT  CLEAR     72  46  40 NE10      29.95F
$$

 ***** WEATHER ACROSS CENTRAL AND WESTERN NORTH DAKOTA  *****

CITY           SKY/WX    TMP DP  RH WIND       PRES   REMARKS
BISMARCK       MOSUNNY   73  50  44 VRB5      29.97F
MINOT          SUNNY     68  47  46 E9        29.99S
JAMESTOWN      SUNNY     72  47  40 E3        29.97S
MINOT AFB      SUNNY     66  49  53 E10       29.99S
GARRISON         N/A     73  44  35 E7        29.98S
WILLISTON      MOSUNNY   76  42  29 SE8       29.94F
DICKINSON      CLOUDY    68  46  45 E13       29.96F
HETTINGER      PTSUNNY   71  49  45 E7        29.98S
$$

 *****  OTHER AIRPORT OBSERVATIONS IN OUR AREA  *****

CITY           SKY/WX    TMP DP  RH WIND       PRES   REMARKS
WALHALLA         N/A     50  45  81 N9        30.09S
GRAFTON AIRPOR CLOUDY    55  46  71 N12       30.05R
VALLEY CITY AR FAIR      72  50  46 NE9       29.98S
CANDO          FAIR      59  46  63 E10G17    30.04S
CAVALIER APRT  CLOUDY    52  45  76 N9        30.07S
GWINNER        CLEAR     73  45  35 NE12      29.98S
SHEYENNE NWR     N/A     72  49  44 NE8       29.95
ROLLA          FAIR      55  45  67 NE10      30.07S
 ***** THE ABOVE OBSERVATIONS ARE NON NWS ARE NOT QUALITY
       CONTROLLED AND MAY MIS-REPORT RAIN FOR SNOW...
$$

  *****  WEATHER ACROSS NORTHERN MINNESOTA  *****

CITY           SKY/WX    TMP DP  RH WIND       PRES   REMARKS
FLAG ISLAND    CLOUDY    46  37  71 NE12      30.07R
WARROAD        CLOUDY    48  43  81 NE10G17   30.08R
ROSEAU         MOSUNNY   54  43  66 NE10G18   30.06R
HALLOCK        MOSUNNY   61  46  59 NE8       30.04S
THF RVR FALLS  MOSUNNY   61  48  63 N12       30.01R
BAUDETTE       MOSUNNY   56  43  61 NE9       30.04R
WASKISH        MOSUNNY   61  48  63 CALM      30.01S
CROOKSTON      SUNNY     66  52  59 NE10G16   30.00R
$$
  *****  WEATHER ACROSS CENTRAL AND WEST MINNESOTA  *****

CITY           SKY/WX    TMP DP  RH WIND       PRES   REMARKS
FOSSTON        SUNNY     70  52  52 NE6       29.99R
BEMIDJI        SUNNY     65  48  52 NE5       29.98R
PARK RAPIDS    SUNNY     71  43  36 NW7       29.96R
ELBOW LAKE     FAIR      71  55  56 E8        29.95S
WADENA         SUNNY     70  50  49 CALM      29.96S
DETROIT LAKES  SUNNY     70  45  40 NE6       29.98S
MOORHEAD       SUNNY     72  48  43 N8        29.97S
FERGUS FALLS   MOSUNNY   72  48  43 E5        29.95F
MORRIS MN      SUNNY     73  54  49 CALM      29.93F
STAPLES        MOSUNNY   70  50  49 CALM      29.96S
$$
  *****  WEATHER ELSEWHERE ACROSS MINNESOTA  *****

CITY           SKY/WX    TMP DP  RH WIND       PRES   REMARKS
DULUTH         MOSUNNY   58  48  69 E15       29.97R
INTRNTL FALLS  PTSUNNY   53  41  63 NE12      30.04S
ELY            PTSUNNY   54  45  71 N8        30.01R
CLOQUET        SUNNY     70  46  43 N6        29.95S
WHEATON        SUNNY     70  52  52 NE6       29.96S
BRAINERD       SUNNY     69  47  45 CALM      29.96S
HIBBING        MOSUNNY   67  50  54 N9        29.97S
ALEXANDRIA     PTSUNNY   71  55  56 NE6       29.97S
SAINT CLOUD    PTSUNNY   73  53  49 E3        29.94F
MINNEAPOLIS    MOSUNNY   73  52  47 CALM      29.94F
$$

  *****  WEATHER ACROSS SOUTH DAKOTA  *****

CITY           SKY/WX    TMP DP  RH WIND       PRES   REMARKS
SIOUX FALLS    PTSUNNY   74  58  57 SE5       29.92F
BROOKINGS      NOT AVBL
WATERTOWN      MOSUNNY   72  51  47 NE7       29.95S
HURON          SUNNY     77  54  44 N8        29.92F
SISSETON         N/A     73  52  47 VRB6      29.94F
ABERDEEN       SUNNY     70  50  49 NE13G18   29.96S
MITCHELL       SUNNY     76  56  49 CALM      29.93F
PIERRE         SUNNY     78  51  38 E8        29.92S
MOBRIDGE       MOSUNNY   75  48  38 E8        29.93F
RAPID CITY     PTSUNNY   75  51  43 E9        29.96F
$$

  *****  SOME WEATHER IN NEARBY STATES *****

CITY           SKY/WX    TMP DP  RH WIND       PRES   REMARKS
GLASGOW MT     SUNNY     75  48  38 SE14      29.88F
GREAT FALLS MT SUNNY     78  47  33 S6        29.88F
CHEYENNE WY    MOSUNNY   81  36  19 N3        30.11F
SCOTTSBLUFF NE SUNNY     85  43  22 CALM      29.97F
OMAHA NE       MOSUNNY   77  60  55 E7        29.91F
DES MOINES IA  MOSUNNY   75  56  51 E5        29.95F
DAVENPORT IA   MOSUNNY   68  52  56 MISG      30.00F
CHICAGO IL     PTSUNNY   70  44  39 SW7       30.00F
EAU CLAIRE WI  MOSUNNY   69  49  48 VRB3      29.95F
LA CROSSE WI   CLOUDY    69  52  54 S8        29.97F
$$

  *****  SOME NATIONAL WEATHER *****

CITY           SKY/WX    TMP DP  RH WIND       PRES   REMARKS
LA GUARDIA NY  MOSUNNY   71  41  33 CALM      29.97F
RALEIGH NC     MOSUNNY   79  63  57 E10       29.93F
ATLANTA GA     MOSUNNY   83  62  49 NW13      29.93F
NEW ORLEANS LA PTSUNNY   86  73  65 N9        29.94F HX  93
OKLAHOMA CITY  PTSUNNY   91  67  44 SW9       29.92F HX  94
ALBUQUERQUE NM LGT RAIN  65  58  78 N5        30.19F
SALT LAKE CITY MOSUNNY   90  39  16 S13       29.96F
LOS ANGELES CA MOSUNNY   79  64  60 W9        29.77S
BOISE ID       CLOUDY    85  40  20 CALM      29.85F
SEATTLE WA     CLOUDY    66  59  78 NW5       29.78F
$$

*** WEATHER ACROSS MANITOBA...SASKATCHEWAN AND ONTARIO ***
                ***ONTARIO***

CITY           SKY/WX    TMP DP  RH WIND       PRES   REMARKS
GERALDTON      PTSUNNY   43  30  61 NW6       30.07S
THUNDER BAY    CLOUDY    45  37  76 E9        30.08R
SIOUX LOOKOUT  CLOUDY    43  36  75 CALM      30.10R
TORONTO        MOSUNNY   68  46  45 W13       29.94F
BIG TROUT LK   CLOUDY    36  21  55 NW12G17   30.13S
PICKLE LAKE    PTSUNNY   45  23  42 W9        30.09F
DRYDEN         CLOUDY    43  36  75 NE8       30.10R
KENORA         NOT AVBL
$$
                *** MANITOBA***

CITY           SKY/WX    TMP DP  RH WIND       PRES   REMARKS
BRANDON        NOT AVBL
DAUPHIN        CLOUDY    43  37  81 E6        30.14S
ISLAND LAKE    PTSUNNY   43  25  49 W5        30.18S
PILOT MOUND    NOT AVBL
THE PAS        PTSUNNY   45  32  61 SE10      30.14F
THOMPSON       MOSUNNY   43  23  45 S7        30.17F
WINNIPEG       CLOUDY    46  39  76 E10G17    30.12R
LYNN LAKE        N/A     45  23  42 S8        30.10F
CHURCHILL      CLOUDY    34  23  64 NW12G20   30.16R
GILLAM         CLOUDY    37  19  48 W5        30.19S
$$
                ***SASKATCHEWAN***

CITY           SKY/WX    TMP DP  RH WIND       PRES   REMARKS
ESTEVAN        MOSUNNY   57  50  77 E14       30.01F
KINDERSLEY     MOSUNNY   68  48  49 E13       29.87F
LLOYDMINSTER   NOT AVBL
PRINCE ALBERT  CLOUDY    46  43  87 SE12      30.01F
REGINA         MOSUNNY   63  50  63 E17G24    29.97F
YORKTON        CLOUDY    48  41  76 SE13      30.07F
N. BATTLEFORD  CLOUDY    52  46  82 SE17G24   29.94F
LA RONGE       CLOUDY    45  39  81 SE13G22   30.02F
SASKATOON      CLOUDY    52  46  82 SE14      29.98F
SWIFT CURRENT  SUNNY     75  43  31 S14       29.86F
$$
NOTE: THESE ARE AUTOMATED STATIONS WITH LIMITED QUALITY CONTROL
      "FAIR" INDICATES FEW OR NO CLOUDS BELOW 12,000 FEET WITH NO
      SIGNIFICANT WEATHER AND/OR OBSTRUCTIONS TO VISIBILITY.
      SKY/WX - SKY CONDITION AND SIGNIFICANT WEATHER.
      TMP - AIR TEMPERATURE.    DP   - DEWPOINT TEMPERATURE.
      RH  - RELATIVE HUMIDITY.  PRES - PRESSURE.
      HX  - HEAT INDEX.         WCI  - WIND CHILL INDEX.
$



USA.gov is the U.S. government's official web portal to all federal, state and local government web resources and services.